Location: Evansville
(37.9747°N, 87.5558°W)
Time: 03:28:51
(UTC-06:00)

BlueWalker 3 - Pass Details

Date: 12 December 2025
Orbit: 451 x 463 km, 53.2° (Epoch: 18 January)

Event Time Altitude Azimuth Distance (km) Brightness Sun altitude
Rises 17:36:30 0° 294° (WNW) 2,493 6.2 -12.6°
Reaches altitude 10° 17:39:17 10° 272° (W) 1,614 5.7 -13.1°
Maximum altitude 17:41:31 16° 234° (SW) 1,303 5.1 -13.5°
Drops below altitude 10° 17:43:46 10° 196° (SSW) 1,607 5.0 -13.9°
Sets 17:46:32 0° 173° (S) 2,476 5.6 -14.4°
